• In Belarus
  • List of Countries
  • For 7 days
  • Water Temperature
  • Satellite Maps
  • Weather Map
  • Weather Widgets
  • user-avatar
    Login

    Hourly Weather Vyazkovskiy

    Today, 18 April, Thursday

    Time Temperature Precipitation Wind Pressure Humidity
    00:00 +5°C° 0 mm 1 mps 758 mmHg 63%
    01:00 +4°C° 0 mm 1 mps 758 mmHg 63%
    02:00 +3°C° 0 mm 0 mps 758 mmHg 63%
    03:00 +3°C° 0 mm 0 mps 758 mmHg 63%
    04:00 +3°C° 0 mm 0 mps 758 mmHg 63%
    05:00 +3°C° 0 mm 0 mps 757 mmHg 62%
    06:00 +5°C° 0 mm 1 mps 757 mmHg 59%
    07:00 +6°C° 0 mm 1 mps 757 mmHg 55%
    08:00 +8°C° 0 mm 1 mps 757 mmHg 51%
    09:00 +9°C° 0 mm 1 mps 757 mmHg 49%
    10:00 +9°C° 0 mm 2 mps 756 mmHg 46%
    11:00 +9°C° 0 mm 2 mps 756 mmHg 44%
    12:00 +10°C° 0 mm 2 mps 756 mmHg 43%
    13:00 +10°C° 0 mm 2 mps 755 mmHg 43%
    14:00 +12°C° 0 mm 2 mps 755 mmHg 43%
    15:00 +12°C° 0.1 mm 1 mps 754 mmHg 44%
    16:00 +12°C° 0.1 mm 1 mps 754 mmHg 46%
    17:00 +12°C° 0.1 mm 1 mps 754 mmHg 48%
    18:00 +11°C° 0 mm 1 mps 754 mmHg 51%
    19:00 +10°C° 0 mm 1 mps 754 mmHg 55%
    20:00 +9°C° 0 mm 1 mps 754 mmHg 59%
    21:00 +7°C° 0 mm 2 mps 754 mmHg 60%
    22:00 +6°C° 0 mm 2 mps 754 mmHg 61%
    23:00 +6°C° 0 mm 2 mps 755 mmHg 63%

    Tomorrow, 19 April, Friday

    Time Temperature Precipitation Wind Pressure Humidity
    00:00 +5°C° 0 mm 2 mps 755 mmHg 63%
    01:00 +5°C° 0 mm 2 mps 755 mmHg 64%
    02:00 +4°C° 0 mm 2 mps 756 mmHg 65%
    03:00 +4°C° 0 mm 2 mps 756 mmHg 65%
    04:00 +4°C° 0 mm 2 mps 756 mmHg 66%
    05:00 +3°C° 0 mm 2 mps 756 mmHg 67%
    06:00 +5°C° 0 mm 2 mps 757 mmHg 62%
    07:00 +6°C° 0 mm 2 mps 757 mmHg 56%
    08:00 +8°C° 0 mm 2 mps 757 mmHg 50%
    09:00 +9°C° 0 mm 3 mps 757 mmHg 45%
    10:00 +10°C° 0 mm 3 mps 758 mmHg 40%
    11:00 +11°C° 0 mm 3 mps 758 mmHg 35%
    12:00 +11°C° 0 mm 3 mps 758 mmHg 35%
    13:00 +11°C° 0 mm 3 mps 757 mmHg 35%
    14:00 +11°C° 0 mm 3 mps 757 mmHg 35%
    15:00 +11°C° 0 mm 3 mps 757 mmHg 36%
    16:00 +12°C° 0 mm 2 mps 757 mmHg 38%
    17:00 +12°C° 0 mm 2 mps 757 mmHg 40%
    18:00 +9°C° 0 mm 2 mps 757 mmHg 43%
    19:00 +8°C° 0 mm 2 mps 757 mmHg 46%
    20:00 +8°C° 0 mm 1 mps 757 mmHg 49%
    21:00 +8°C° 0 mm 1 mps 757 mmHg 51%
    22:00 +6°C° 0 mm 0 mps 757 mmHg 52%
    23:00 +6°C° 0 mm 0 mps 757 mmHg 53%

    Day after tomorrow, 20 April, Saturday

    Time Temperature Precipitation Wind Pressure Humidity
    00:00 +6°C° 0 mm 0 mps 757 mmHg 53%
    01:00 +5°C° 0 mm 0 mps 757 mmHg 54%
    02:00 +6°C° 0 mm 1 mps 757 mmHg 55%
    03:00 +6°C° 0 mm 1 mps 756 mmHg 55%
    04:00 +6°C° 0 mm 1 mps 756 mmHg 56%
    05:00 +6°C° 0 mm 1 mps 756 mmHg 56%
    06:00 +8°C° 0 mm 1 mps 756 mmHg 54%
    07:00 +8°C° 0 mm 2 mps 756 mmHg 51%
    08:00 +9°C° 0 mm 2 mps 756 mmHg 48%
    09:00 +10°C° 0 mm 2 mps 755 mmHg 46%
    10:00 +10°C° 0 mm 2 mps 755 mmHg 44%
    11:00 +11°C° 0 mm 3 mps 755 mmHg 41%
    12:00 +11°C° 0 mm 3 mps 755 mmHg 42%
    13:00 +13°C° 0 mm 2 mps 755 mmHg 42%
    14:00 +13°C° 0 mm 2 mps 754 mmHg 42%
    15:00 +13°C° 0 mm 2 mps 754 mmHg 44%
    16:00 +13°C° 0 mm 2 mps 754 mmHg 45%
    17:00 +13°C° 0 mm 2 mps 754 mmHg 47%
    18:00 +10°C° 0 mm 2 mps 754 mmHg 51%
    19:00 +9°C° 0 mm 2 mps 754 mmHg 55%
    20:00 +8°C° 0 mm 3 mps 754 mmHg 59%
    21:00 +8°C° 0 mm 3 mps 754 mmHg 61%
    22:00 +7°C° 0 mm 3 mps 754 mmHg 64%
    23:00 +5°C° 0 mm 3 mps 755 mmHg 66%

    21 April, Sunday

    Time Temperature Precipitation Wind Pressure Humidity
    00:00 +5°C° 0 mm 3 mps 755 mmHg 66%
    01:00 +6°C° 0 mm 2 mps 755 mmHg 66%
    02:00 +5°C° 0 mm 2 mps 755 mmHg 66%
    03:00 +5°C° 0 mm 2 mps 755 mmHg 66%
    04:00 +5°C° 0 mm 2 mps 755 mmHg 66%
    05:00 +5°C° 0 mm 2 mps 755 mmHg 65%
    06:00 +7°C° 0 mm 2 mps 756 mmHg 61%
    07:00 +8°C° 0 mm 3 mps 756 mmHg 56%
    08:00 +10°C° 0 mm 3 mps 756 mmHg 52%
    09:00 +11°C° 0 mm 3 mps 757 mmHg 48%
    10:00 +12°C° 0 mm 3 mps 757 mmHg 44%
    11:00 +12°C° 0 mm 3 mps 757 mmHg 40%
    12:00 +13°C° 0 mm 3 mps 757 mmHg 39%
    13:00 +13°C° 0 mm 3 mps 757 mmHg 38%
    14:00 +13°C° 0 mm 3 mps 757 mmHg 37%
    15:00 +14°C° 0 mm 2 mps 757 mmHg 38%
    16:00 +13°C° 0 mm 2 mps 757 mmHg 39%
    17:00 +13°C° 0 mm 2 mps 757 mmHg 41%
    18:00 +12°C° 0 mm 2 mps 757 mmHg 43%
    19:00 +10°C° 0 mm 2 mps 757 mmHg 46%
    20:00 +10°C° 0 mm 1 mps 757 mmHg 49%
    21:00 +10°C° 0 mm 1 mps 758 mmHg 50%
    22:00 +9°C° 0 mm 1 mps 758 mmHg 51%
    23:00 +9°C° 0 mm 1 mps 758 mmHg 53%

    22 April, Monday

    Time Temperature Precipitation Wind Pressure Humidity
    00:00 +9°C° 0 mm 1 mps 758 mmHg 53%
    01:00 +8°C° 0 mm 0 mps 758 mmHg 54%
    02:00 +8°C° 0 mm 0 mps 758 mmHg 54%
    03:00 +8°C° 0 mm 0 mps 759 mmHg 55%
    04:00 +7°C° 0 mm 0 mps 759 mmHg 56%
    05:00 +7°C° 0 mm 0 mps 759 mmHg 57%
    06:00 +10°C° 0 mm 1 mps 759 mmHg 53%
    07:00 +11°C° 0 mm 1 mps 759 mmHg 49%
    08:00 +12°C° 0 mm 1 mps 760 mmHg 45%
    09:00 +13°C° 0 mm 1 mps 760 mmHg 42%
    10:00 +13°C° 0 mm 1 mps 760 mmHg 39%
    11:00 +13°C° 0 mm 1 mps 760 mmHg 36%
    12:00 +14°C° 0 mm 1 mps 760 mmHg 36%
    13:00 +14°C° 0 mm 1 mps 759 mmHg 36%
    14:00 +14°C° 0 mm 1 mps 759 mmHg 36%
    15:00 +14°C° 0 mm 1 mps 759 mmHg 38%
    16:00 +14°C° 0 mm 1 mps 759 mmHg 40%
    17:00 +14°C° 0 mm 1 mps 759 mmHg 41%
    18:00 +13°C° 0 mm 1 mps 759 mmHg 43%
    19:00 +12°C° 0 mm 1 mps 759 mmHg 46%
    20:00 +11°C° 0 mm 1 mps 760 mmHg 48%
    21:00 +11°C° 0 mm 1 mps 760 mmHg 49%
    22:00 +11°C° 0 mm 1 mps 760 mmHg 50%
    23:00 +10°C° 0 mm 1 mps 760 mmHg 51%

    23 April, Tuesday

    Time Temperature Precipitation Wind Pressure Humidity
    00:00 +10°C° 0 mm 1 mps 760 mmHg 53%
    01:00 +9°C° 0 mm 1 mps 760 mmHg 55%
    02:00 +8°C° 0 mm 1 mps 760 mmHg 57%
    03:00 +8°C° 0 mm 1 mps 761 mmHg 59%
    04:00 +8°C° 0 mm 1 mps 761 mmHg 61%
    05:00 +8°C° 0 mm 1 mps 761 mmHg 63%
    06:00 +9°C° 0 mm 1 mps 761 mmHg 60%
    07:00 +11°C° 0 mm 1 mps 761 mmHg 57%
    08:00 +12°C° 0 mm 1 mps 761 mmHg 53%
    09:00 +13°C° 0 mm 1 mps 761 mmHg 51%
    10:00 +14°C° 0 mm 2 mps 761 mmHg 48%
    11:00 +15°C° 0 mm 2 mps 761 mmHg 45%
    12:00 +16°C° 0 mm 2 mps 761 mmHg 45%
    13:00 +16°C° 0 mm 1 mps 761 mmHg 44%
    14:00 +16°C° 0 mm 1 mps 760 mmHg 43%
    15:00 +16°C° 0 mm 1 mps 760 mmHg 45%
    16:00 +16°C° 0 mm 1 mps 760 mmHg 47%
    17:00 +16°C° 0 mm 1 mps 760 mmHg 49%
    18:00 +15°C° 0 mm 1 mps 760 mmHg 51%
    19:00 +14°C° 0 mm 1 mps 760 mmHg 53%
    20:00 +13°C° 0 mm 1 mps 760 mmHg 55%
    21:00 +12°C° 0 mm 1 mps 760 mmHg 58%
    22:00 +11°C° 0 mm 1 mps 760 mmHg 60%
    23:00 +10°C° 0 mm 1 mps 760 mmHg 62%
    Show more